Flag for Germany Weather past 2 weeks in Zwickau, Saxony, Germany

Now
63 °F

Sunny.


Feels Like: 63 °F
Forecast: 49 / 60 °F
Wind: 15 mph from West

Location: Altenburg Nobitz

Current Time: Oct 20, 2014 at 3:33:33 PM

Latest Report: Oct 20, 2014 at 2:50 PM


Visibility: 10 mi

Pressure: 30.01 "Hg

Humidity: 59%

Dew point: 48 °F

Location of ZwickauLocation

Historic Weather in Zwickau — Graph

°F

Zwickau temperature yesterday

Maximum temperature yesterday: 72 °F (at 2:50 PM)
Minimum temperature yesterday: 59 °F (at 9:20 AM)
Average temperature yesterday: 67 °F

Past Weeks' High & Low Weather Summary

 TemperatureHumidityPressure
High75 °F (Oct 9, 2:50 PM)100% (Oct 8, 8:20 AM)30.24 "Hg (Oct 8, 8:20 AM)
Low50 °F (Oct 7, 8:20 AM)54% (Oct 9, 2:50 PM)29.71 "Hg (Oct 16, 12:50 PM)
Average62 °F77%29.91 "Hg
* Reported Oct 5 2:20 PM — Oct 20 2:20 PM, Zwickau, Weather by CustomWeather, © 2014

Note: Actual official high and low records may vary slightly from our data, if they occured in-between our weather recording intervals... More about our weather records

Advertising

Zwickau weather history for previous 24 hours

 ConditionsComfort  
Time TempWeatherWind HumidityBarometerVisibility
2:20 PM
Oct 20
61 °FSunny.16 mph63%30.01 "Hg10 mi
1:50 PM61 °FPassing clouds.17 mph59%30.01 "HgN/A
1:20 PM61 °FPassing clouds.15 mph59%30.01 "HgN/A
12:50 PM61 °FPassing clouds.17 mph59%30.01 "HgN/A
12:20 PM61 °FPassing clouds.16 mph59%30.04 "HgN/A
11:50 AM61 °FSunny.16 mph63%30.01 "Hg10 mi
11:20 AM61 °FPassing clouds.13 mph63%30.04 "HgN/A
10:50 AM61 °FPassing clouds.12 mph68%30.04 "HgN/A
10:20 AM59 °FSunny.12 mph77%30.04 "Hg10 mi
9:50 AM59 °FSunny.7 mph77%30.01 "Hg10 mi
9:20 AM59 °FSunny.7 mph77%30.01 "Hg10 mi
6:50 PM
Oct 19
64 °FSunny.10 mph73%30.01 "Hg10 mi
6:20 PM66 °FSunny.9 mph73%30.01 "Hg10 mi
5:50 PM66 °FSunny.12 mph68%30.01 "Hg10 mi
5:20 PM70 °FSunny.12 mph64%30.01 "Hg10 mi
4:50 PM70 °FSunny.12 mph64%30.01 "Hg10 mi
4:20 PM70 °FSunny.10 mph64%30.04 "Hg10 mi
3:50 PM70 °FSunny.16 mph64%30.04 "Hg10 mi
3:20 PM72 °FSunny.15 mph61%30.04 "Hg10 mi
Weather by CustomWeather, © 2014

See weather overviewHow to use our weather pages